contact:dominique.lefevre@mio.osupytheas.fr, maurice.libes@osupytheas.fr, didier.mallarino@osupytheas.fr
Project:EMSO http://www.emso-fr.org/EMSO-France
Depth: 2436.0 m
Title:EMSO Ligure Ouest : Data MII capteur AQUADOPP
Date,Latitude,Longitude,X_East,Y_North,Z_Up,Amplitude_X,Amplitude_Y,Amplitude_Z,Batterie,SoundSpeed,Heading,Pitch,Roll,Pressure,TIS,Speed,Direction
, degrees North, degrees East, m.s-1, m.s-1,m.s-1, 1, 1, 1, Volt, m.s-1, degree, degree, degree, dbar, degree_C, m.s-1, degree
2020-08-18T00:04:03,42.805,6.029,0.047,-0.015,-0.012,104.0,108.0,101.0,13.4,1505.2,324.4,-0.8,1.8,2470.352,13.3,0.049,107.7
2020-08-18T00:07:03,42.805,6.029,0.034,-0.003,0.005,105.0,111.0,101.0,13.3,1505.3,323.7,-0.7,1.8,2470.356,13.31,0.034,95.0
2020-08-18T00:10:03,42.805,6.029,0.057,-0.008,-0.009,105.0,113.0,101.0,13.4,1505.3,324.7,-0.7,1.9,2470.331,13.31,0.057,98.0
2020-08-18T00:13:03,42.805,6.029,0.049,-0.023,0.016,103.0,110.0,101.0,13.3,1505.3,323.7,-0.7,1.8,2470.357,13.32,0.054,115.1
2020-08-18T00:16:03,42.805,6.029,0.051,-0.018,0.01,103.0,107.0,101.0,13.4,1505.3,324.6,-0.7,1.8,2470.328,13.32,0.054,109.4
2020-08-18T00:19:03,42.805,6.029,0.055,-0.014,0.001,104.0,110.0,101.0,13.3,1505.3,327.9,-0.7,1.8,2470.305,13.32,0.056,104.3
2020-08-18T00:22:03,42.805,6.029,0.035,-0.018,-0.005,104.0,110.0,101.0,13.3,1505.3,323.0,-0.7,1.8,2470.331,13.32,0.039,117.2
2020-08-18T00:25:03,42.805,6.029,0.054,-0.011,-0.018,105.0,111.0,100.0,13.4,1505.3,325.3,-0.7,1.8,2470.309,13.32,0.055,101.5
2020-08-18T00:28:03,42.805,6.029,0.026,-0.015,-0.027,105.0,107.0,102.0,13.4,1505.3,324.6,-0.7,1.8,2470.335,13.32,0.03,120.0
2020-08-18T00:31:03,42.805,6.029,0.068,-0.017,0.007,104.0,109.0,101.0,13.4,1505.3,327.1,-0.7,1.8,2470.32,13.32,0.07,104.0
2020-08-18T00:34:03,42.805,6.029,0.068,-0.009,0.019,103.0,111.0,102.0,13.4,1505.3,327.7,-0.7,1.8,2470.359,13.32,0.068,97.5
2020-08-18T00:37:03,42.805,6.029,0.049,-0.01,0.007,103.0,112.0,102.0,13.3,1505.3,323.3,-0.7,1.8,2470.365,13.32,0.05,101.5
2020-08-18T00:40:03,42.805,6.029,0.053,-0.015,0.013,103.0,107.0,102.0,13.4,1505.3,324.9,-0.7,1.9,2470.29,13.32,0.055,105.8
2020-08-18T00:43:03,42.805,6.029,0.048,-0.022,0.011,103.0,111.0,102.0,13.3,1505.3,324.3,-0.7,1.8,2470.319,13.32,0.052,114.6
2020-08-18T00:46:03,42.805,6.029,0.031,-0.015,0.046,104.0,112.0,101.0,13.3,1505.3,323.1,-0.7,1.9,2470.322,13.32,0.034,115.8
2020-08-18T00:49:03,42.805,6.029,0.066,-0.015,0.021,104.0,109.0,101.0,13.4,1505.3,325.5,-0.7,1.8,2470.326,13.32,0.067,102.8
2020-08-18T00:52:03,42.805,6.029,0.031,-0.028,-0.017,104.0,110.0,102.0,13.4,1505.3,325.8,-0.7,1.8,2470.326,13.32,0.041,132.1
2020-08-18T00:55:03,42.805,6.029,0.05,-0.009,0.017,104.0,111.0,101.0,13.3,1505.3,327.9,-0.7,1.8,2470.299,13.32,0.05,100.2
2020-08-18T00:58:03,42.805,6.029,0.068,-0.001,0.007,105.0,110.0,101.0,13.4,1505.3,326.4,-0.7,1.8,2470.31,13.32,0.068,90.8
2020-08-18T01:04:03,42.805,6.029,0.062,-0.016,0.002,105.0,109.0,103.0,13.4,1505.2,323.4,-0.7,1.8,2470.351,13.3,0.064,104.5
2020-08-18T01:07:03,42.805,6.029,0.037,-0.007,-0.018,104.0,110.0,101.0,13.4,1505.3,325.4,-0.7,1.8,2470.323,13.31,0.037,100.7
2020-08-18T01:10:03,42.805,6.029,0.058,-0.021,0.002,103.0,109.0,102.0,13.4,1505.3,326.6,-0.7,1.8,2470.301,13.31,0.061,109.9
2020-08-18T01:13:03,42.805,6.029,0.046,-0.001,-0.021,104.0,106.0,102.0,13.3,1505.3,326.6,-0.7,1.8,2470.302,13.32,0.046,91.2
2020-08-18T01:16:03,42.805,6.029,0.041,-0.025,0.0,104.0,109.0,101.0,13.3,1505.3,323.8,-0.7,1.8,2470.318,13.32,0.048,121.4
2020-08-18T01:19:03,42.805,6.029,0.048,-0.01,0.012,104.0,108.0,101.0,13.4,1505.3,323.6,-0.7,1.8,2470.288,13.32,0.049,101.8
2020-08-18T01:22:03,42.805,6.029,0.052,-0.006,0.032,104.0,108.0,102.0,13.4,1505.3,326.8,-0.7,1.8,2470.324,13.32,0.052,96.6
2020-08-18T01:25:03,42.805,6.029,0.037,-0.022,0.011,104.0,111.0,101.0,13.4,1505.3,327.1,-0.7,1.8,2470.312,13.32,0.043,120.7
2020-08-18T01:28:03,42.805,6.029,0.031,-0.01,0.0,104.0,109.0,101.0,13.4,1505.3,327.2,-0.7,1.9,2470.297,13.32,0.032,107.9
2020-08-18T01:31:03,42.805,6.029,0.034,-0.016,0.0,105.0,108.0,101.0,13.4,1505.3,326.3,-0.7,1.8,2470.305,13.32,0.037,115.2
2020-08-18T01:34:03,42.805,6.029,0.021,0.0,0.018,104.0,110.0,101.0,13.4,1505.3,326.1,-0.7,1.8,2470.327,13.32,0.021,90.0
2020-08-18T01:37:03,42.805,6.029,0.051,-0.029,0.018,103.0,110.0,101.0,13.4,1505.3,327.5,-0.7,1.9,2470.311,13.32,0.058,119.6
2020-08-18T01:40:03,42.805,6.029,0.049,-0.009,0.008,104.0,108.0,101.0,13.3,1505.3,326.3,-0.7,1.8,2470.278,13.32,0.049,100.4
2020-08-18T01:43:03,42.805,6.029,0.025,-0.016,-0.04,105.0,110.0,102.0,13.4,1505.3,327.1,-0.7,1.8,2470.287,13.32,0.029,122.6
2020-08-18T01:46:03,42.805,6.029,0.06,-0.009,0.01,104.0,107.0,102.0,13.4,1505.3,324.8,-0.7,1.8,2470.274,13.32,0.06,98.5
2020-08-18T01:49:03,42.805,6.029,0.041,-0.013,-0.003,105.0,110.0,102.0,13.3,1505.3,323.4,-0.7,1.8,2470.313,13.32,0.043,107.6
2020-08-18T01:52:03,42.805,6.029,0.037,-0.023,0.008,105.0,111.0,100.0,13.4,1505.3,323.7,-0.7,1.8,2470.318,13.32,0.043,121.9
2020-08-18T01:55:03,42.805,6.029,0.04,-0.022,-0.005,104.0,108.0,102.0,13.4,1505.3,322.7,-0.7,1.8,2470.304,13.32,0.045,118.8
2020-08-18T01:58:03,42.805,6.029,0.053,-0.005,0.001,105.0,108.0,102.0,13.4,1505.3,325.0,-0.7,1.8,2470.29,13.32,0.053,95.4
2020-08-18T02:04:03,42.805,6.029,0.025,-0.014,-0.026,104.0,113.0,101.0,13.4,1505.2,328.1,-0.7,1.8,2470.329,13.3,0.028,119.3
2020-08-18T02:07:03,42.805,6.029,0.029,-0.038,0.0,104.0,108.0,102.0,13.4,1505.3,323.9,-0.7,1.8,2470.292,13.31,0.047,142.7
2020-08-18T02:10:03,42.805,6.029,0.049,-0.009,0.017,104.0,110.0,102.0,13.4,1505.3,325.1,-0.8,1.8,2470.304,13.31,0.049,100.4
2020-08-18T02:13:03,42.805,6.029,0.044,-0.016,0.031,104.0,110.0,102.0,13.4,1505.3,323.4,-0.7,1.8,2470.334,13.32,0.046,110.0
2020-08-18T02:16:03,42.805,6.029,0.06,-0.026,0.007,105.0,112.0,101.0,13.4,1505.3,327.1,-0.7,1.8,2470.334,13.32,0.065,113.4
2020-08-18T02:19:03,42.805,6.029,0.06,-0.011,0.025,103.0,110.0,102.0,13.3,1505.3,325.3,-0.7,1.8,2470.305,13.32,0.06,100.4
2020-08-18T02:22:03,42.805,6.029,0.059,-0.021,-0.011,104.0,107.0,102.0,13.4,1505.3,326.6,-0.7,1.9,2470.269,13.32,0.062,109.6
2020-08-18T02:25:03,42.805,6.029,0.063,-0.018,-0.014,103.0,111.0,101.0,13.4,1505.3,327.9,-0.7,1.8,2470.335,13.32,0.065,105.9
2020-08-18T02:28:03,42.805,6.029,0.078,-0.029,0.017,105.0,110.0,101.0,13.3,1505.3,326.5,-0.7,1.9,2470.306,13.32,0.083,110.4
2020-08-18T02:31:03,42.805,6.029,0.048,-0.006,0.023,104.0,110.0,102.0,13.3,1505.3,323.9,-0.7,1.9,2470.333,13.32,0.048,97.1
2020-08-18T02:34:03,42.805,6.029,0.035,-0.004,-0.007,105.0,107.0,101.0,13.3,1505.3,328.3,-0.7,1.8,2470.287,13.32,0.035,96.5
2020-08-18T02:37:03,42.805,6.029,0.047,-0.02,0.022,104.0,108.0,102.0,13.3,1505.3,326.1,-0.7,1.8,2470.273,13.32,0.051,113.0
2020-08-18T02:40:03,42.805,6.029,0.049,-0.029,-0.016,103.0,108.0,101.0,13.4,1505.3,324.1,-0.7,1.9,2470.307,13.32,0.056,120.6
2020-08-18T02:43:03,42.805,6.029,0.052,-0.026,0.012,104.0,107.0,102.0,13.4,1505.3,324.7,-0.7,1.8,2470.324,13.32,0.058,116.6
2020-08-18T02:46:03,42.805,6.029,0.048,-0.011,-0.011,104.0,107.0,101.0,13.4,1505.3,324.6,-0.8,1.8,2470.319,13.32,0.049,102.9
2020-08-18T02:49:03,42.805,6.029,0.055,-0.02,0.008,105.0,109.0,101.0,13.4,1505.3,325.1,-0.7,1.8,2470.318,13.32,0.058,110.0
2020-08-18T02:52:03,42.805,6.029,0.051,-0.019,0.0,104.0,107.0,102.0,13.4,1505.3,325.0,-0.7,1.8,2470.31,13.32,0.054,110.4
2020-08-18T02:55:03,42.805,6.029,0.038,-0.033,0.0,105.0,108.0,102.0,13.3,1505.3,327.7,-0.7,1.9,2470.278,13.32,0.05,131.0
2020-08-18T02:58:03,42.805,6.029,0.044,-0.026,0.0,104.0,109.0,100.0,13.4,1505.3,326.1,-0.7,1.8,2470.339,13.32,0.051,120.6
2020-08-18T03:04:03,42.805,6.029,0.045,-0.041,-0.01,105.0,106.0,101.0,13.4,1505.2,327.4,-0.7,1.8,2470.342,13.3,0.06,132.3
2020-08-18T03:07:03,42.805,6.029,0.043,-0.013,-0.03,104.0,109.0,101.0,13.4,1505.3,323.2,-0.7,1.8,2470.331,13.31,0.044,106.8
2020-08-18T03:10:03,42.805,6.029,0.039,-0.03,-0.007,103.0,108.0,101.0,13.3,1505.3,326.0,-0.7,1.9,2470.324,13.31,0.049,127.6
2020-08-18T03:13:03,42.805,6.029,0.05,-0.008,-0.013,105.0,108.0,102.0,13.4,1505.3,324.2,-0.7,1.9,2470.328,13.32,0.05,99.1
2020-08-18T03:16:03,42.805,6.029,0.045,-0.005,0.0,105.0,107.0,100.0,13.4,1505.3,328.3,-0.7,1.8,2470.318,13.32,0.045,96.3
2020-08-18T03:19:03,42.805,6.029,0.05,-0.026,-0.02,105.0,107.0,102.0,13.4,1505.3,323.4,-0.7,1.8,2470.337,13.32,0.056,117.5
2020-08-18T03:22:03,42.805,6.029,0.046,-0.033,-0.002,103.0,109.0,102.0,13.4,1505.3,324.4,-0.7,1.8,2470.34,13.32,0.056,125.7
2020-08-18T03:28:03,42.805,6.029,0.042,-0.02,0.0,104.0,108.0,102.0,13.4,1505.2,324.5,-0.7,1.8,2470.373,13.3,0.046,115.5
2020-08-18T03:31:03,42.805,6.029,0.044,-0.017,0.01,105.0,110.0,102.0,13.3,1505.3,326.9,-0.7,1.8,2470.397,13.31,0.047,111.1
2020-08-18T03:34:03,42.805,6.029,0.044,-0.021,-0.03,105.0,109.0,101.0,13.3,1505.3,327.5,-0.7,1.9,2470.347,13.31,0.048,115.5
2020-08-18T03:37:03,42.805,6.029,0.036,-0.014,0.003,105.0,109.0,101.0,13.4,1505.3,325.0,-0.7,1.8,2470.35,13.32,0.038,111.2
2020-08-18T03:40:03,42.805,6.029,0.033,-0.027,-0.007,104.0,109.0,102.0,13.4,1505.3,325.3,-0.7,1.8,2470.358,13.32,0.042,129.3
2020-08-18T03:43:03,42.805,6.029,0.051,-0.009,0.018,105.0,109.0,102.0,13.4,1505.3,323.3,-0.7,1.8,2470.377,13.32,0.051,100.0
2020-08-18T03:46:03,42.805,6.029,0.066,-0.018,-0.016,104.0,107.0,101.0,13.4,1505.3,325.4,-0.7,1.8,2470.365,13.32,0.068,105.3
2020-08-18T03:49:03,42.805,6.029,0.054,-0.018,-0.014,104.0,108.0,101.0,13.4,1505.3,327.8,-0.7,1.8,2470.36,13.32,0.056,108.4
2020-08-18T03:52:03,42.805,6.029,0.046,-0.005,0.012,105.0,107.0,102.0,13.3,1505.3,324.2,-0.7,1.8,2470.367,13.32,0.046,96.2
2020-08-18T03:55:03,42.805,6.029,0.045,-0.025,0.012,104.0,109.0,102.0,13.4,1505.3,326.5,-0.7,1.8,2470.352,13.32,0.051,119.1
2020-08-18T03:58:03,42.805,6.029,0.019,-0.015,0.0,104.0,109.0,101.0,13.4,1505.3,325.8,-0.7,1.8,2470.357,13.32,0.024,128.3
2020-08-18T04:04:03,42.805,6.029,0.042,-0.008,0.004,103.0,106.0,102.0,13.4,1505.2,325.7,-0.7,1.8,2470.43,13.3,0.042,100.8
2020-08-18T04:07:03,42.805,6.029,0.038,0.011,0.006,104.0,109.0,101.0,13.4,1505.3,324.4,-0.7,1.8,2470.402,13.31,0.039,73.9
2020-08-18T04:10:03,42.805,6.029,0.029,-0.016,0.012,103.0,106.0,103.0,13.4,1505.3,324.1,-0.7,1.8,2470.378,13.31,0.033,118.9
2020-08-18T04:13:03,42.805,6.029,0.017,-0.011,-0.031,104.0,108.0,101.0,13.4,1505.3,327.5,-0.8,1.8,2470.366,13.32,0.02,122.9
2020-08-18T04:16:03,42.805,6.029,0.063,-0.021,-0.027,104.0,107.0,101.0,13.3,1505.3,325.7,-0.7,1.8,2470.377,13.32,0.066,108.4
2020-08-18T04:19:03,42.805,6.029,0.034,-0.011,-0.002,104.0,110.0,102.0,13.3,1505.3,323.9,-0.7,1.8,2470.391,13.32,0.035,107.9
2020-08-18T04:22:03,42.805,6.029,0.048,-0.013,0.032,103.0,108.0,100.0,13.4,1505.3,326.3,-0.7,1.8,2470.41,13.32,0.049,105.2
2020-08-18T04:25:03,42.805,6.029,0.034,0.002,0.011,104.0,109.0,103.0,13.4,1505.3,326.0,-0.7,1.8,2470.411,13.32,0.034,86.6
2020-08-18T04:28:03,42.805,6.029,0.051,0.001,0.01,102.0,107.0,103.0,13.4,1505.3,324.7,-0.7,1.8,2470.383,13.32,0.051,88.9
2020-08-18T04:31:03,42.805,6.029,0.042,-0.004,-0.009,105.0,108.0,101.0,13.3,1505.3,324.4,-0.7,1.8,2470.406,13.32,0.042,95.4
2020-08-18T04:34:03,42.805,6.029,0.05,-0.011,0.004,104.0,108.0,101.0,13.4,1505.3,324.6,-0.7,1.8,2470.389,13.32,0.051,102.4
2020-08-18T04:37:03,42.805,6.029,0.036,-0.024,-0.014,103.0,109.0,101.0,13.3,1505.3,327.0,-0.7,1.8,2470.368,13.32,0.043,123.7
2020-08-18T04:40:03,42.805,6.029,0.041,-0.021,-0.007,103.0,107.0,102.0,13.3,1505.3,326.5,-0.7,1.8,2470.384,13.32,0.046,117.1
2020-08-18T04:43:03,42.805,6.029,0.039,-0.008,-0.004,104.0,107.0,102.0,13.3,1505.3,326.9,-0.7,1.8,2470.401,13.32,0.039,101.6
2020-08-18T04:46:03,42.805,6.029,0.05,-0.013,0.001,104.0,108.0,102.0,13.4,1505.3,325.1,-0.7,1.8,2470.38,13.32,0.051,104.6
2020-08-18T04:49:03,42.805,6.029,0.042,-0.011,-0.005,103.0,108.0,102.0,13.4,1505.3,323.6,-0.7,1.9,2470.401,13.32,0.043,104.7
2020-08-18T04:52:03,42.805,6.029,0.032,-0.003,-0.001,103.0,109.0,101.0,13.3,1505.3,324.2,-0.7,1.9,2470.384,13.32,0.032,95.4
2020-08-18T04:55:03,42.805,6.029,0.045,-0.012,-0.019,104.0,108.0,102.0,13.4,1505.3,323.2,-0.7,1.8,2470.401,13.32,0.046,104.9
2020-08-18T04:58:03,42.805,6.029,0.042,-0.015,-0.019,104.0,107.0,101.0,13.4,1505.3,325.7,-0.7,1.9,2470.383,13.32,0.044,109.6
2020-08-18T05:04:03,42.805,6.029,0.021,-0.023,-0.012,104.0,109.0,101.0,13.4,1505.2,327.0,-0.7,1.8,2470.459,13.3,0.031,137.6
2020-08-18T05:07:03,42.805,6.029,0.028,0.001,0.006,103.0,110.0,101.0,13.4,1505.3,325.2,-0.7,1.8,2470.452,13.31,0.028,88.0
2020-08-18T05:10:03,42.805,6.029,0.033,-0.025,-0.034,104.0,107.0,102.0,13.4,1505.3,327.7,-0.7,1.8,2470.382,13.31,0.041,127.1
2020-08-18T05:13:03,42.805,6.029,0.027,-0.009,-0.01,105.0,109.0,101.0,13.4,1505.3,327.9,-0.7,1.8,2470.426,13.32,0.028,108.4
2020-08-18T05:16:03,42.805,6.029,0.043,-0.002,0.007,103.0,107.0,103.0,13.3,1505.3,322.8,-0.7,1.9,2470.398,13.32,0.043,92.7
2020-08-18T05:19:03,42.805,6.029,0.028,-0.004,-0.001,103.0,108.0,102.0,13.4,1505.3,326.9,-0.7,1.8,2470.421,13.32,0.028,98.1
2020-08-18T05:22:03,42.805,6.029,0.061,-0.01,0.005,105.0,108.0,102.0,13.3,1505.3,324.8,-0.7,1.8,2470.423,13.32,0.061,99.3
2020-08-18T05:25:03,42.805,6.029,0.051,-0.025,0.004,105.0,107.0,102.0,13.3,1505.3,325.3,-0.7,1.8,2470.396,13.32,0.056,116.1
2020-08-18T05:28:03,42.805,6.029,0.035,-0.008,0.011,105.0,107.0,103.0,13.3,1505.3,327.7,-0.7,1.8,2470.419,13.32,0.035,102.9
2020-08-18T05:31:03,42.805,6.029,0.05,-0.011,0.01,105.0,108.0,102.0,13.4,1505.3,327.6,-0.7,1.8,2470.382,13.32,0.051,102.4
2020-08-18T05:34:03,42.805,6.029,0.02,-0.012,-0.032,104.0,110.0,101.0,13.4,1505.3,327.4,-0.7,1.8,2470.474,13.32,0.023,121.0
2020-08-18T05:37:03,42.805,6.029,0.037,0.0,0.011,104.0,107.0,102.0,13.4,1505.3,328.4,-0.7,1.8,2470.402,13.32,0.037,90.0
2020-08-18T05:40:03,42.805,6.029,0.05,-0.004,-0.013,104.0,108.0,102.0,13.3,1505.3,328.6,-0.7,1.8,2470.399,13.32,0.05,94.6
2020-08-18T05:43:03,42.805,6.029,0.072,-0.003,0.016,104.0,108.0,102.0,13.4,1505.3,325.0,-0.7,1.8,2470.436,13.32,0.072,92.4
2020-08-18T05:46:03,42.805,6.029,0.029,-0.017,0.021,105.0,107.0,102.0,13.3,1505.3,325.8,-0.7,1.9,2470.426,13.32,0.033,120.4
2020-08-18T05:49:03,42.805,6.029,0.053,-0.012,0.026,106.0,107.0,103.0,13.3,1505.3,325.9,-0.7,1.8,2470.443,13.32,0.054,102.8
2020-08-18T05:52:03,42.805,6.029,0.037,-0.035,-0.016,104.0,107.0,102.0,13.4,1505.3,326.1,-0.7,1.8,2470.426,13.32,0.05,133.4
2020-08-18T05:55:03,42.805,6.029,0.039,-0.033,-0.025,103.0,105.0,102.0,13.4,1505.3,322.7,-0.7,1.8,2470.43,13.32,0.051,130.2
2020-08-18T05:58:03,42.805,6.029,0.062,-0.036,-0.009,104.0,106.0,101.0,13.4,1505.3,328.4,-0.7,1.9,2470.425,13.32,0.071,120.1
2020-08-18T06:04:03,42.805,6.029,0.052,-0.002,-0.016,104.0,108.0,102.0,13.4,1505.2,327.9,-0.7,1.8,2470.451,13.3,0.052,92.2
2020-08-18T06:07:03,42.805,6.029,0.035,0.01,0.011,104.0,109.0,101.0,13.4,1505.3,325.8,-0.7,1.8,2470.443,13.31,0.036,74.1
2020-08-18T06:10:03,42.805,6.029,0.014,-0.013,-0.027,106.0,107.0,101.0,13.3,1505.3,327.7,-0.7,1.8,2470.425,13.31,0.019,132.9
2020-08-18T06:13:03,42.805,6.029,0.037,-0.014,-0.015,104.0,106.0,101.0,13.3,1505.3,323.3,-0.7,1.8,2470.456,13.32,0.039,110.7
2020-08-18T06:16:03,42.805,6.029,0.043,-0.01,-0.014,105.0,108.0,102.0,13.4,1505.3,323.2,-0.7,1.8,2470.428,13.32,0.044,103.1
2020-08-18T06:19:03,42.805,6.029,0.037,-0.018,0.004,104.0,108.0,103.0,13.4,1505.3,323.2,-0.7,1.8,2470.423,13.32,0.041,115.9
2020-08-18T06:22:03,42.805,6.029,0.063,0.008,0.011,102.0,107.0,102.0,13.4,1505.3,328.2,-0.7,1.8,2470.45,13.32,0.063,82.8
2020-08-18T06:25:03,42.805,6.029,0.032,0.011,0.0,106.0,108.0,102.0,13.4,1505.3,326.4,-0.7,1.8,2470.483,13.32,0.033,71.0
2020-08-18T06:28:03,42.805,6.029,0.026,-0.018,-0.017,105.0,108.0,102.0,13.3,1505.3,326.7,-0.7,1.8,2470.405,13.32,0.031,124.7
2020-08-18T06:31:03,42.805,6.029,0.04,-0.018,-0.009,104.0,108.0,102.0,13.4,1505.3,323.1,-0.7,1.9,2470.445,13.32,0.043,114.2
2020-08-18T06:34:03,42.805,6.029,0.065,-0.02,-0.002,102.0,108.0,102.0,13.4,1505.3,326.3,-0.7,1.8,2470.464,13.32,0.068,107.1
2020-08-18T06:37:03,42.805,6.029,0.037,-0.015,-0.025,103.0,106.0,103.0,13.4,1505.3,323.9,-0.7,1.8,2470.454,13.32,0.039,112.1
2020-08-18T06:40:03,42.805,6.029,0.032,-0.003,0.009,105.0,106.0,101.0,13.4,1505.3,325.4,-0.7,1.8,2470.436,13.32,0.032,95.4
2020-08-18T06:43:03,42.805,6.029,0.031,-0.023,-0.008,104.0,108.0,102.0,13.4,1505.3,323.5,-0.7,1.8,2470.436,13.32,0.038,126.6
2020-08-18T06:46:03,42.805,6.029,0.04,-0.001,-0.008,104.0,107.0,101.0,13.4,1505.3,322.5,-0.7,1.8,2470.407,13.32,0.04,91.4
2020-08-18T06:49:03,42.805,6.029,0.052,-0.005,0.009,104.0,107.0,102.0,13.4,1505.3,324.5,-0.7,1.8,2470.421,13.32,0.052,95.5
2020-08-18T06:52:03,42.805,6.029,0.048,-0.002,0.004,105.0,105.0,102.0,13.4,1505.3,326.6,-0.7,1.8,2470.43,13.32,0.048,92.4
2020-08-18T06:55:03,42.805,6.029,0.03,-0.01,-0.047,104.0,107.0,100.0,13.3,1505.3,325.8,-0.7,1.8,2470.406,13.32,0.031,108.4
2020-08-18T06:58:03,42.805,6.029,0.039,-0.018,-0.022,104.0,107.0,102.0,13.4,1505.3,326.3,-0.7,1.8,2470.425,13.32,0.042,114.8
2020-08-18T07:04:03,42.805,6.029,0.032,-0.035,-0.003,103.0,106.0,102.0,13.4,1505.2,325.5,-0.8,1.8,2470.452,13.3,0.047,137.6
2020-08-18T07:07:03,42.805,6.029,0.041,-0.015,0.013,104.0,105.0,102.0,13.4,1505.3,326.5,-0.7,1.8,2470.469,13.31,0.043,110.1
2020-08-18T07:10:03,42.805,6.029,0.04,-0.012,0.0,104.0,106.0,99.0,13.4,1505.3,324.8,-0.7,1.8,2470.457,13.31,0.041,106.7
2020-08-18T07:13:03,42.805,6.029,0.053,-0.006,-0.009,102.0,107.0,102.0,13.4,1505.3,323.3,-0.7,1.8,2470.432,13.32,0.053,96.5
2020-08-18T07:16:03,42.805,6.029,0.06,-0.024,-0.019,103.0,106.0,102.0,13.4,1505.3,327.3,-0.7,1.9,2470.415,13.32,0.064,111.8
2020-08-18T07:19:03,42.805,6.029,0.024,-0.008,-0.02,104.0,105.0,102.0,13.4,1505.3,326.5,-0.7,1.9,2470.449,13.32,0.025,108.4
2020-08-18T07:22:03,42.805,6.029,0.049,-0.026,0.02,104.0,107.0,102.0,13.4,1505.3,326.9,-0.7,1.8,2470.418,13.32,0.055,117.9
2020-08-18T07:25:03,42.805,6.029,0.038,-0.014,-0.007,102.0,106.0,102.0,13.4,1505.3,326.7,-0.7,1.8,2470.427,13.32,0.04,110.2
2020-08-18T07:28:03,42.805,6.029,0.04,-0.021,0.001,103.0,105.0,101.0,13.4,1505.3,326.9,-0.7,1.8,2470.445,13.32,0.045,117.7
2020-08-18T07:31:03,42.805,6.029,0.048,-0.024,0.002,104.0,105.0,101.0,13.3,1505.3,323.3,-0.7,1.8,2470.395,13.32,0.053,116.6
2020-08-18T07:34:03,42.805,6.029,0.037,-0.032,-0.042,103.0,108.0,101.0,13.4,1505.3,322.9,-0.7,1.8,2470.461,13.32,0.048,130.9
2020-08-18T07:37:03,42.805,6.029,0.053,-0.014,0.011,104.0,106.0,100.0,13.4,1505.3,323.8,-0.7,1.8,2470.449,13.32,0.054,104.8
2020-08-18T07:40:03,42.805,6.029,0.05,-0.016,-0.008,103.0,106.0,101.0,13.4,1505.3,325.7,-0.7,1.8,2470.357,13.32,0.052,107.7
2020-08-18T07:43:03,42.805,6.029,0.04,-0.017,-0.025,105.0,107.0,101.0,13.4,1505.3,324.3,-0.7,1.9,2470.386,13.32,0.043,113.0
2020-08-18T07:46:03,42.805,6.029,0.016,-0.01,-0.02,103.0,107.0,100.0,13.4,1505.3,324.6,-0.7,1.8,2470.426,13.32,0.018,122.0
2020-08-18T07:49:03,42.805,6.029,0.053,-0.013,-0.021,104.0,105.0,101.0,13.4,1505.3,325.7,-0.7,1.8,2470.404,13.32,0.054,103.8
2020-08-18T07:52:03,42.805,6.029,0.042,-0.021,0.007,103.0,107.0,101.0,13.4,1505.3,326.4,-0.7,1.9,2470.399,13.32,0.046,116.6
2020-08-18T07:55:03,42.805,6.029,0.053,-0.016,-0.021,103.0,107.0,102.0,13.3,1505.3,326.5,-0.7,1.8,2470.408,13.32,0.055,106.8
2020-08-18T07:58:03,42.805,6.029,0.036,-0.009,-0.011,104.0,107.0,101.0,13.4,1505.3,324.0,-0.7,1.8,2470.395,13.32,0.037,104.0
2020-08-18T08:04:03,42.805,6.029,0.045,-0.046,-0.022,103.0,106.0,101.0,13.4,1505.2,326.1,-0.7,1.8,2470.425,13.3,0.064,135.6
2020-08-18T08:07:03,42.805,6.029,0.023,-0.012,0.009,105.0,106.0,101.0,13.3,1505.3,322.9,-0.7,1.8,2470.409,13.31,0.025,117.6
2020-08-18T08:10:03,42.805,6.029,0.038,-0.011,-0.026,103.0,107.0,102.0,13.4,1505.3,322.8,-0.7,1.8,2470.422,13.31,0.039,106.1
2020-08-18T08:13:03,42.805,6.029,0.027,-0.015,0.031,105.0,109.0,100.0,13.4,1505.3,325.7,-0.7,1.8,2470.436,13.32,0.03,119.1
2020-08-18T08:16:03,42.805,6.029,0.035,0.008,0.003,105.0,107.0,101.0,13.4,1505.3,324.7,-0.7,1.8,2470.44,13.32,0.035,77.1
2020-08-18T08:19:03,42.805,6.029,0.052,0.0,-0.015,103.0,106.0,102.0,13.4,1505.3,324.9,-0.7,1.8,2470.369,13.32,0.052,90.0
2020-08-18T08:22:03,42.805,6.029,0.041,-0.01,0.015,102.0,107.0,102.0,13.3,1505.3,325.5,-0.7,1.8,2470.368,13.32,0.042,103.7
2020-08-18T08:25:03,42.805,6.029,0.027,-0.004,-0.011,103.0,107.0,102.0,13.4,1505.3,325.7,-0.7,1.8,2470.388,13.32,0.027,98.4
2020-08-18T08:28:03,42.805,6.029,0.027,-0.021,-0.009,103.0,107.0,102.0,13.3,1505.3,327.1,-0.7,1.8,2470.398,13.32,0.034,127.9
2020-08-18T08:31:03,42.805,6.029,0.052,-0.012,-0.006,104.0,106.0,101.0,13.3,1505.3,324.2,-0.7,1.8,2470.394,13.32,0.053,103.0
2020-08-18T08:34:03,42.805,6.029,0.038,-0.005,-0.001,104.0,108.0,101.0,13.4,1505.3,324.0,-0.7,1.8,2470.356,13.32,0.038,97.5
2020-08-18T08:37:03,42.805,6.029,0.06,-0.029,0.001,103.0,106.0,101.0,13.4,1505.3,323.4,-0.7,1.8,2470.39,13.32,0.066,115.8
2020-08-18T08:40:03,42.805,6.029,0.064,-0.01,-0.018,102.0,107.0,101.0,13.4,1505.3,323.2,-0.7,1.8,2470.367,13.32,0.064,98.9
2020-08-18T08:43:03,42.805,6.029,0.039,-0.013,-0.002,101.0,108.0,102.0,13.4,1505.3,325.6,-0.7,1.8,2470.369,13.32,0.041,108.4
2020-08-18T08:46:03,42.805,6.029,0.045,-0.003,0.0,104.0,106.0,102.0,13.4,1505.3,324.1,-0.7,1.8,2470.354,13.32,0.045,93.8
2020-08-18T08:49:03,42.805,6.029,0.064,-0.006,0.022,104.0,106.0,100.0,13.3,1505.3,328.3,-0.7,1.8,2470.344,13.32,0.064,95.4
2020-08-18T08:52:03,42.805,6.029,0.042,-0.013,-0.006,103.0,108.0,101.0,13.4,1505.3,324.5,-0.7,1.8,2470.36,13.32,0.043,107.2
2020-08-18T08:55:03,42.805,6.029,0.056,-0.014,-0.006,102.0,105.0,101.0,13.4,1505.3,326.5,-0.7,1.8,2470.364,13.32,0.057,104.0
2020-08-18T08:58:03,42.805,6.029,0.046,-0.014,-0.012,104.0,106.0,100.0,13.4,1505.3,327.4,-0.7,1.8,2470.415,13.32,0.048,106.9
2020-08-18T09:04:03,42.805,6.029,0.041,-0.024,-0.025,104.0,107.0,101.0,13.3,1505.2,327.3,-0.7,1.8,2470.411,13.3,0.047,120.3
2020-08-18T09:07:03,42.805,6.029,0.052,-0.034,-0.016,103.0,108.0,102.0,13.3,1505.3,323.4,-0.7,1.8,2470.402,13.31,0.062,123.2
2020-08-18T09:10:03,42.805,6.029,0.043,-0.009,0.016,104.0,105.0,102.0,13.3,1505.3,324.5,-0.7,1.8,2470.323,13.31,0.043,101.8
2020-08-18T09:13:03,42.805,6.029,0.028,-0.023,-0.009,104.0,106.0,101.0,13.4,1505.3,326.8,-0.7,1.9,2470.358,13.32,0.036,129.4
2020-08-18T09:16:03,42.805,6.029,0.027,-0.018,-0.005,103.0,106.0,102.0,13.4,1505.3,328.3,-0.7,1.8,2470.401,13.32,0.032,123.7
2020-08-18T09:19:03,42.805,6.029,0.043,-0.009,-0.026,104.0,106.0,101.0,13.3,1505.3,327.6,-0.7,1.8,2470.339,13.32,0.043,101.8
2020-08-18T09:22:03,42.805,6.029,0.035,0.0,-0.018,104.0,108.0,101.0,13.4,1505.3,327.8,-0.7,1.8,2470.367,13.32,0.035,90.0
2020-08-18T09:25:03,42.805,6.029,0.014,-0.011,-0.021,103.0,108.0,102.0,13.4,1505.3,328.2,-0.7,1.8,2470.397,13.32,0.017,128.2
2020-08-18T09:28:03,42.805,6.029,0.023,-0.007,-0.033,104.0,107.0,101.0,13.3,1505.3,327.7,-0.7,1.8,2470.397,13.32,0.024,106.9
2020-08-18T09:31:03,42.805,6.029,0.053,-0.002,-0.02,103.0,107.0,101.0,13.4,1505.3,327.7,-0.7,1.9,2470.392,13.32,0.053,92.2
2020-08-18T09:34:03,42.805,6.029,0.065,0.0,-0.042,104.0,105.0,102.0,13.4,1505.3,324.2,-0.7,1.8,2470.317,13.32,0.064,90.0
2020-08-18T09:37:03,42.805,6.029,0.061,0.013,0.004,103.0,106.0,102.0,13.4,1505.3,325.7,-0.7,1.8,2470.379,13.32,0.062,78.0
2020-08-18T09:40:03,42.805,6.029,0.047,-0.021,-0.011,102.0,106.0,102.0,13.4,1505.3,326.9,-0.7,1.9,2470.331,13.32,0.051,114.1
2020-08-18T09:43:03,42.805,6.029,0.06,0.009,-0.028,104.0,106.0,102.0,13.4,1505.3,323.1,-0.7,1.8,2470.317,13.32,0.06,81.5
2020-08-18T09:46:03,42.805,6.029,0.041,-0.013,-0.002,104.0,107.0,101.0,13.4,1505.3,326.0,-0.7,1.8,2470.343,13.32,0.043,107.6
2020-08-18T09:49:03,42.805,6.029,0.045,-0.011,-0.022,105.0,107.0,102.0,13.4,1505.3,327.7,-0.7,1.8,2470.331,13.32,0.046,103.7
2020-08-18T09:52:03,42.805,6.029,0.031,-0.004,0.008,104.0,108.0,101.0,13.4,1505.3,326.4,-0.7,1.8,2470.336,13.32,0.031,97.3
2020-08-18T09:55:03,42.805,6.029,0.049,-0.009,-0.014,104.0,107.0,101.0,13.4,1505.3,328.4,-0.7,1.8,2470.294,13.32,0.049,100.4
2020-08-18T09:58:03,42.805,6.029,0.023,-0.007,-0.058,103.0,106.0,102.0,13.4,1505.3,323.4,-0.7,1.8,2470.311,13.32,0.024,106.9
2020-08-18T10:04:03,42.805,6.029,0.023,0.006,0.0,105.0,107.0,101.0,13.3,1505.2,324.7,-0.7,1.8,2470.387,13.3,0.023,75.4